CW5404 Weather Reports


time (UTC)temp
C
wind
direction
speed
KPH
gust
KPH
rain 1hr
cm
rain 24hr
cm
rain mn
cm
humidity
%
barometer
mb
20260505010411 21 223 0.0 6.4 0.00 0.00 0.00 63 1010.3
20260505005910 21 202 0.0 3.2 0.00 0.00 0.00 63 1010.3
20260505005410 21 242 0.0 9.7 0.00 0.00 0.00 62 1010.3
20260505004910 21 240 1.6 9.7 0.00 0.00 0.00 62 1010.3
20260505004411 21 209 4.8 9.7 0.00 0.00 0.00 61 1010.3
20260505003910 21 279 1.6 9.7 0.00 0.00 0.00 61 1010.4
20260505002410 22 236 1.6 6.4 0.00 0.00 0.00 61 1010.4
20260505001910 22 182 0.0 6.4 0.00 0.00 0.00 60 1010.4
20260505000413 22 64 1.6 9.7 0.00 0.00 0.00 59 1010.5
20260504235910 22 58 0.0 9.7 0.00 0.00 0.00 59 1010.5
20260504235410 22 217 6.4 9.7 0.00 0.00 0.00 58 1010.5
20260504234910 22 200 3.2 9.7 0.00 0.00 0.00 60 1010.5
20260504234410 22 348 1.6 9.7 0.00 0.00 0.00 60 1010.5
20260504233410 22 258 3.2 11.3 0.00 0.00 0.00 59 1010.8
20260504232410 22 219 4.8 11.3 0.00 0.00 0.00 61 1010.7
20260504231910 22 266 1.6 11.3 0.00 0.00 0.00 60 1010.7
20260504231410 22 233 1.6 11.3 0.00 0.00 0.00 59 1010.7
20260504230910 22 209 3.2 11.3 0.00 0.00 0.00 60 1010.8
20260504230410 22 197 0.0 11.3 0.00 0.00 0.00 60 1010.8
20260504225910 22 224 8.0 12.9 0.00 0.00 0.00 61 1010.8
20260504225410 22 218 6.4 12.9 0.00 0.00 0.00 61 1010.9
20260504224910 22 229 4.8 12.9 0.00 0.00 0.00 59 1010.9
20260504224410 22 201 6.4 12.9 0.00 0.00 0.00 59 1010.9
20260504223909 22 202 12.9 12.9 0.00 0.00 0.00 58 1011.1
20260504223410 22 218 1.6 6.4 0.00 0.00 0.00 60 1011.2
20260504222909 22 182 6.4 6.4 0.00 0.00 0.00 60 1011.2
20260504222410 22 217 0.0 8.0 0.00 0.00 0.00 62 1011.2
20260504221909 22 173 1.6 8.0 0.00 0.00 0.00 57 1011.1
20260504221409 22 227 3.2 6.4 0.00 0.00 0.00 58 1011.1
20260504220909 22 328 1.6 6.4 0.00 0.00 0.00 58 1011.4
20260504220409 22 272 1.6 8.0 0.00 0.00 0.00 59 1011.4
20260504215909 22 65 1.6 8.0 0.00 0.00 0.00 64 1011.5
20260504215409 21 165 3.2 8.0 0.00 0.00 0.00 60 1011.5
20260504214909 21 198 6.4 8.0 0.00 0.00 0.00 61 1011.5
20260504214409 21 212 6.4 11.3 0.00 0.00 0.00 63 1011.5
20260504213909 21 212 8.0 11.3 0.00 0.00 0.00 64 1011.6
20260504213409 21 172 0.0 9.7 0.00 0.00 0.00 62 1011.6
20260504212409 21 214 4.8 11.3 0.00 0.00 0.00 64 1011.8
20260504211909 21 183 4.8 11.3 0.00 0.00 0.00 63 1011.8
20260504211409 21 178 6.4 11.3 0.00 0.00 0.00 63 1011.8
20260504205909 21 169 8.0 11.3 0.00 0.00 0.00 62 1012.0
20260504205409 21 122 3.2 9.7 0.00 0.00 0.00 68 1012.3
20260504204909 20 96 8.0 12.9 0.00 0.00 0.00 65 1012.2
20260504204409 20 99 4.8 12.9 0.00 0.00 0.00 66 1012.2
20260504203909 20 157 4.8 16.1 0.00 0.00 0.00 67 1012.3
20260504203408 19 103 1.6 16.1 0.00 0.00 0.00 66 1012.3
20260504202908 19 87 8.0 17.7 0.00 0.00 0.00 67 1012.3
20260504202409 20 109 11.3 17.7 0.00 0.00 0.00 68 1012.3
20260504201908 20 44 3.2 12.9 0.00 0.00 0.00 67 1012.3
20260504201409 20 132 6.4 11.3 0.00 0.00 0.00 67 1012.3
20260504200909 19 132 6.4 11.3 0.00 0.00 0.00 69 1012.4
20260504200409 19 175 4.8 11.3 0.00 0.00 0.00 69 1012.4
20260504195408 18 186 3.2 12.9 0.00 0.00 0.00 69 1012.5
20260504194908 18 119 4.8 12.9 0.00 0.00 0.00 69 1012.5
20260504194408 18 150 1.6 12.9 0.00 0.00 0.00 68 1012.5
20260504193908 18 107 4.8 14.5 0.00 0.00 0.00 70 1012.5
20260504193408 18 157 9.7 14.5 0.00 0.00 0.00 69 1012.5
20260504192908 18 196 3.2 9.7 0.00 0.00 0.00 69 1012.5
20260504192408 18 187 6.4 11.3 0.00 0.00 0.00 70 1012.5
20260504191408 18 132 11.3 12.9 0.00 0.00 0.00 71 1012.5
20260504190908 18 168 4.8 12.9 0.00 0.00 0.00 70 1012.7
20260504190408 18 160 3.2 9.7 0.00 0.00 0.00 69 1012.7
20260504172928 16 0.0 3.2 0.00 0.00 0.00 77 1012.9
20260504172429 16 1.6 3.2 0.00 0.00 0.00 78 1013.1
20260504171928 15 0.0 3.2 0.00 0.00 0.00 80 1013.1
20260504171428 15 0.0 0.0 0.00 0.00 0.00 81 1013.1
20260504170429 15 0.0 6.4 0.00 0.00 0.00 81 1013.0
20260504160428 13 0.0 0.0 0.00 0.00 0.00 87 1013.1
20260504130425 9 0.0 0.0 0.00 0.00 0.00 93 1011.1
20260504110424 11 0.0 0.0 0.00 0.00 0.00 89 1010.5
20260504100424 12 0.0 0.0 0.00 0.00 0.00 86 1010.1
20260504081922 13 0.0 3.2 0.00 0.00 0.00 79 1009.2
20260504081423 13 0.0 0.0 0.00 0.00 0.00 79 1009.2
20260504080922 13 0.0 0.0 0.00 0.00 0.00 78 1009.1
20260504080422 13 0.0 1.6 0.00 0.00 0.00 78 1009.1
20260504050420 21 0.0 0.0 0.00 0.00 0.00 51 1007.0
20260504045920 21 0.0 0.0 0.00 0.00 0.00 50 1007.1
20260504045420 21 0.0 0.0 0.00 0.00 0.00 49 1006.9
20260504044920 22 0.0 0.0 0.00 0.00 0.00 48 1006.9
20260504044419 22 0.0 0.0 0.00 0.00 0.00 47 1006.9
20260504043419 22 0.0 0.0 0.00 0.00 0.00 46 1006.6
20260504042919 22 0.0 0.0 0.00 0.00 0.00 46 1006.6
20260504042419 22 0.0 0.0 0.00 0.00 0.00 46 1006.4
20260504041920 22 0.0 0.0 0.00 0.00 0.00 46 1006.4
20260504041420 22 0.0 0.0 0.00 0.00 0.00 46 1006.4
20260504040419 23 0.0 0.0 0.00 0.00 0.00 45 1006.5
20260504035919 23 0.0 0.0 0.00 0.00 0.00 44 1006.5
20260504035419 23 0.0 0.0 0.00 0.00 0.00 44 1006.4
20260504034919 23 0.0 0.0 0.00 0.00 0.00 42 1006.4
20260504034419 24 0.0 0.0 0.00 0.00 0.00 41 1006.4
20260504033919 24 0.0 0.0 0.00 0.00 0.00 39 1006.3
20260504033419 25 0.0 0.0 0.00 0.00 0.00 38 1006.3
20260504032919 25 0.0 0.0 0.00 0.00 0.00 38 1006.3
20260504032419 25 0.0 0.0 0.00 0.00 0.00 38 1006.2
20260504031919 26 0.0 0.0 0.00 0.00 0.00 37 1006.2
20260504031419 26 0.0 0.0 0.00 0.00 0.00 36 1006.2
20260504030919 26 0.0 0.0 0.00 0.00 0.00 35 1006.1
20260504030419 26 0.0 0.0 0.00 0.00 0.00 35 1006.2
20260504025919 26 0.0 0.0 0.00 0.00 0.00 35 1006.2
20260504025419 26 0.0 0.0 0.00 0.00 0.00 35 1006.1
20260504024919 27 0.0 0.0 0.00 0.00 0.00 36 1006.1
20260504024419 27 0.0 0.0 0.00 0.00 0.00 35 1006.1
20260504023919 27 0.0 0.0 0.00 0.00 0.00 35 1006.1
20260504023419 27 0.0 0.0 0.00 0.00 0.00 34 1006.1
20260504022919 27 0.0 0.0 0.00 0.00 0.00 35 1006.1
20260504022419 27 0.0 0.0 0.00 0.00 0.00 35 1006.1
20260504021918 28 0.0 0.0 0.00 0.00 0.00 36 1006.1
20260504021418 28 0.0 0.0 0.00 0.00 0.00 33 1006.1
20260504020918 28 0.0 0.0 0.00 0.00 0.00 32 1006.2
20260504020418 28 0.0 0.0 0.00 0.00 0.00 30 1006.2
20260504015918 28 0.0 0.0 0.00 0.00 0.00 30 1006.2
20260504015418 28 0.0 0.0 0.00 0.00 0.00 31 1006.2
20260504014918 29 0.0 3.2 0.00 0.00 0.00 32 1006.2
20260504014418 29 0.0 3.2 0.00 0.00 0.00 29 1006.2
20260504013918 29 0.0 1.6 0.00 0.00 0.00 28 1006.2
20260504013418 29 0.0 3.2 0.00 0.00 0.00 27 1006.2
20260504012918 29 0.0 3.2 0.00 0.00 0.00 28 1006.2
20260504012417 29 0.0 3.2 0.00 0.00 0.00 28 1006.3
20260504011918 29 0.0 3.2 0.00 0.00 0.00 28 1006.3
20260504011417 29 0.0 0.0 0.00 0.00 0.00 29 1006.3
20260504010917 30 0.0 0.0 0.00 0.00 0.00 31 1006.4